Location: Obersdorf
(47.4079°N, 10.2781°E)
Time: 06:39:26
(UTC+02:00)

Nauka - Pass Details

Date: 01 October 2021
Orbit: 417 x 423 km, 51.6° (Epoch: 19 October)

Event Time Altitude Azimuth Distance (km) Brightness Sun altitude
Rises 21:52:40 0° 287° (WNW) 2,366 ? -29.3°
Reaches altitude 10° 21:55:10 10° 269° (W) 1,499 ? -29.6°
Enters shadow 21:55:29 12° 265° (W) 1,412 ? -29.7°
